Date,Time,Wetness (Wet Dry or Ice),Wind Speed (m/s),Temperature (C),Humidity (%),Pressure (mb),Radiation (W/m^2)
2020-05-20,22:05:00,DRY,1.70,13.95,1.0,778.00,2.0
2020-05-20,22:10:00,DRY,1.87,14.13,1.0,778.00,1.2
2020-05-20,22:15:00,DRY,2.30,14.15,1.5,778.00,1.0
2020-05-20,22:20:00,DRY,1.93,14.20,2.0,778.00,0.5
2020-05-20,22:25:00,DRY,1.85,14.15,2.5,778.00,1.1
2020-05-20,22:30:00,DRY,1.60,13.97,2.3,778.00,1.1
2020-05-20,22:35:00,DRY,2.15,14.15,2.5,778.00,1.4
2020-05-20,22:40:00,DRY,1.97,14.10,3.0,778.00,1.0
2020-05-20,22:45:00,DRY,2.10,14.25,2.5,778.00,1.5
2020-05-20,22:50:00,DRY,2.03,14.17,2.3,778.00,1.8
2020-05-20,22:55:00,DRY,1.90,14.25,2.5,778.00,1.4
2020-05-20,23:00:00,DRY,1.77,14.20,3.0,778.00,2.1
2020-05-20,23:05:00,DRY,1.95,14.20,2.5,778.00,1.0
2020-05-20,23:10:00,DRY,1.77,14.20,2.7,778.00,1.1
2020-05-20,23:15:00,DRY,1.70,14.40,2.5,778.00,1.2
2020-05-20,23:20:00,DRY,1.57,14.33,2.7,778.00,0.8
2020-05-20,23:25:00,DRY,1.95,14.30,3.0,778.00,0.7
2020-05-20,23:30:00,DRY,1.80,14.23,3.0,778.00,0.8
2020-05-20,23:35:00,DRY,1.80,14.10,3.0,778.00,1.5
2020-05-20,23:40:00,DRY,1.67,13.97,3.0,778.00,2.2
2020-05-20,23:45:00,DRY,1.90,13.75,3.0,778.00,0.4
2020-05-20,23:50:00,DRY,1.67,13.67,3.0,778.00,1.2
2020-05-20,23:55:00,DRY,1.80,13.60,3.0,778.00,1.5
2020-05-21,00:00:00,DRY,1.13,13.50,3.0,778.00,1.4
2020-05-21,00:05:00,DRY,1.10,13.40,3.0,778.00,1.4
2020-05-21,00:10:00,DRY,1.97,13.33,3.0,778.00,1.6
2020-05-21,00:15:00,DRY,2.30,13.55,3.0,778.00,2.2
2020-05-21,00:20:00,DRY,1.73,13.70,3.7,778.00,1.5
2020-05-21,00:25:00,DRY,1.65,13.50,3.5,778.00,1.4
2020-05-21,00:30:00,DRY,1.83,13.37,3.7,778.00,1.2
2020-05-21,00:35:00,DRY,1.65,13.40,3.5,778.00,1.0
2020-05-21,00:40:00,DRY,1.90,13.37,3.3,778.00,1.3
2020-05-21,00:45:00,DRY,1.85,13.55,3.0,778.00,1.5
2020-05-21,00:50:00,DRY,1.87,13.67,3.0,778.00,0.9
2020-05-21,00:55:00,DRY,1.75,13.85,3.0,778.00,1.3
2020-05-21,01:00:00,DRY,1.67,13.87,3.7,778.00,1.0
2020-05-21,01:05:00,DRY,2.05,13.60,4.0,778.00,1.4
2020-05-21,01:10:00,DRY,1.73,13.70,4.3,778.00,1.0
2020-05-21,01:15:00,DRY,1.85,13.70,5.0,778.00,0.7
2020-05-21,01:20:00,DRY,1.77,13.73,5.3,777.00,1.4
2020-05-21,01:25:00,DRY,1.60,13.70,6.0,777.00,0.6
2020-05-21,01:30:00,DRY,1.40,13.87,6.3,777.00,0.7
2020-05-21,01:35:00,DRY,1.75,13.95,7.0,777.00,1.2
2020-05-21,01:40:00,DRY,1.87,13.73,7.0,777.00,1.9
2020-05-21,01:45:00,DRY,1.80,13.60,6.0,777.00,0.8
2020-05-21,01:50:00,DRY,1.40,13.57,7.0,777.00,1.7
2020-05-21,01:55:00,DRY,1.55,13.60,6.5,777.00,1.9
2020-05-21,02:00:00,DRY,1.23,13.60,6.0,777.00,1.1
2020-05-21,02:05:00,DRY,1.55,13.60,6.0,777.00,1.6
2020-05-21,02:10:00,DRY,1.77,13.60,6.0,777.00,1.4
2020-05-21,02:15:00,DRY,1.65,13.40,6.0,777.00,0.9
2020-05-21,02:20:00,DRY,1.17,13.50,5.0,777.00,1.9
2020-05-21,02:25:00,DRY,0.70,13.35,5.0,777.00,1.2
2020-05-21,02:30:00,DRY,1.40,13.33,6.0,777.00,0.8
2020-05-21,02:35:00,DRY,1.60,13.10,6.0,777.00,1.0
2020-05-21,02:40:00,DRY,1.00,13.17,6.0,777.00,2.0
2020-05-21,02:45:00,DRY,1.15,13.20,6.5,777.00,1.4
2020-05-21,02:50:00,DRY,1.40,13.03,7.0,777.00,1.3
2020-05-21,02:55:00,DRY,1.50,13.00,7.0,777.00,0.9
2020-05-21,03:00:00,DRY,1.30,13.03,7.3,777.00,0.5
2020-05-21,03:05:00,DRY,1.40,13.10,8.0,777.00,1.0
2020-05-21,03:10:00,DRY,1.57,13.63,7.0,777.00,1.0
2020-05-21,03:15:00,DRY,1.70,13.60,7.0,777.00,0.9
2020-05-21,03:20:00,DRY,1.60,13.30,8.0,777.00,1.3
2020-05-21,03:25:00,DRY,1.75,13.25,8.0,777.00,1.2
2020-05-21,03:30:00,DRY,1.17,13.20,8.3,777.00,0.5
2020-05-21,03:35:00,DRY,1.35,13.20,9.0,777.00,1.1
2020-05-21,03:40:00,DRY,1.67,13.20,9.0,777.00,1.2
2020-05-21,03:45:00,DRY,1.80,13.15,9.0,777.00,0.9
2020-05-21,03:50:00,DRY,2.17,13.07,9.0,777.00,0.5
2020-05-21,03:55:00,DRY,1.80,12.90,9.0,777.00,1.9
2020-05-21,04:00:00,DRY,1.80,13.07,9.0,777.00,1.0
2020-05-21,04:05:00,DRY,1.80,12.85,9.0,777.00,1.3
2020-05-21,04:10:00,DRY,2.00,12.50,9.0,777.00,0.8
2020-05-21,04:15:00,DRY,2.60,12.25,9.0,777.00,0.8
2020-05-21,04:20:00,DRY,2.10,12.20,9.0,777.00,1.1
2020-05-21,04:25:00,DRY,2.20,12.45,9.0,777.00,0.5
2020-05-21,04:30:00,DRY,1.83,12.77,9.3,777.00,1.0
2020-05-21,04:35:00,DRY,2.15,12.85,9.0,777.00,0.8
2020-05-21,04:40:00,DRY,2.27,12.97,8.7,777.00,1.4
2020-05-21,04:45:00,DRY,1.65,13.25,9.0,777.00,0.8
2020-05-21,04:50:00,DRY,1.47,13.20,9.0,777.00,1.2
2020-05-21,04:55:00,DRY,1.90,13.25,9.0,777.00,0.5
2020-05-21,05:00:00,DRY,2.03,12.97,9.0,777.00,1.3
2020-05-21,05:05:00,DRY,2.30,12.95,9.0,777.00,1.1
2020-05-21,05:10:00,DRY,2.13,12.73,9.7,777.00,1.3
2020-05-21,05:15:00,DRY,2.40,12.65,10.0,777.00,1.2
2020-05-21,05:20:00,DRY,2.27,12.60,10.0,777.00,1.5
2020-05-21,05:25:00,DRY,2.50,12.60,10.0,777.00,1.9
2020-05-21,05:30:00,DRY,2.43,12.73,10.0,777.00,0.8
2020-05-21,05:35:00,DRY,1.80,12.85,10.0,777.00,0.9
2020-05-21,05:40:00,DRY,2.17,12.77,10.0,777.00,0.7
2020-05-21,05:45:00,DRY,2.40,12.80,9.5,777.00,1.1
2020-05-21,05:50:00,DRY,2.63,12.93,9.3,777.00,0.7
2020-05-21,05:55:00,DRY,2.90,13.10,9.0,777.00,1.5
2020-05-21,06:00:00,DRY,2.80,12.93,9.3,777.00,2.4
2020-05-21,06:05:00,DRY,2.90,13.05,10.0,777.00,3.4
2020-05-21,06:10:00,DRY,2.90,13.23,9.7,777.00,4.3
2020-05-21,06:15:00,DRY,2.50,13.40,9.5,777.00,6.1
2020-05-21,06:20:00,DRY,2.43,13.50,9.0,777.00,11.7
2020-05-21,06:25:00,DRY,2.40,13.40,8.0,777.00,26.9
2020-05-21,06:30:00,DRY,2.30,13.50,8.0,777.00,42.9
2020-05-21,06:35:00,DRY,2.05,13.50,5.0,777.00,62.5
2020-05-21,06:40:00,DRY,2.23,13.57,6.3,777.00,87.2
2020-05-21,06:45:00,DRY,2.25,13.85,6.5,777.00,110.6
2020-05-21,06:50:00,DRY,2.47,14.00,9.0,777.00,129.4
2020-05-21,06:55:00,DRY,2.95,14.25,9.0,777.00,149.5
2020-05-21,07:00:00,DRY,2.87,14.47,7.3,777.00,170.4
2020-05-21,07:05:00,DRY,2.95,14.50,8.0,777.00,191.2
2020-05-21,07:10:00,DRY,2.33,14.70,7.3,777.00,214.2
2020-05-21,07:15:00,DRY,2.60,14.80,8.0,777.00,230.6
2020-05-21,07:20:00,DRY,2.50,14.93,8.0,777.00,258.6
2020-05-21,07:25:00,DRY,2.30,15.00,8.0,777.00,281.1
2020-05-21,07:30:00,DRY,2.63,15.10,8.3,777.00,303.4
2020-05-21,07:35:00,DRY,2.25,15.25,9.0,777.00,326.7
2020-05-21,07:40:00,DRY,2.47,15.33,8.7,777.00,349.2
2020-05-21,07:45:00,DRY,2.50,15.35,9.0,777.00,371.5
2020-05-21,07:50:00,DRY,3.13,15.47,8.7,777.00,394.6
2020-05-21,07:55:00,DRY,2.90,15.45,8.5,777.00,417.0
2020-05-21,08:00:00,DRY,2.90,15.60,7.7,777.00,439.2
2020-05-21,08:05:00,DRY,2.70,15.75,9.0,777.00,462.9
2020-05-21,08:10:00,DRY,2.67,15.93,8.3,777.00,484.3
2020-05-21,08:15:00,DRY,2.25,15.90,8.0,777.00,506.9
2020-05-21,08:20:00,DRY,2.63,16.10,8.0,777.00,528.5
2020-05-21,08:25:00,DRY,3.65,16.20,8.0,777.00,550.0
2020-05-21,08:30:00,DRY,2.40,16.27,7.7,777.00,571.7
2020-05-21,08:35:00,DRY,3.05,16.55,8.0,777.00,592.9
2020-05-21,08:40:00,DRY,2.73,16.37,8.3,777.00,613.3
2020-05-21,08:45:00,DRY,2.35,16.30,7.0,777.00,634.6
2020-05-21,08:50:00,DRY,2.50,16.53,7.0,777.00,654.4
2020-05-21,08:55:00,DRY,2.00,16.70,8.0,777.00,676.0
2020-05-21,09:00:00,DRY,2.17,16.77,8.3,777.33,696.0
2020-05-21,09:05:00,DRY,2.40,16.95,8.0,777.50,715.3
2020-05-21,09:10:00,DRY,2.37,16.77,7.7,777.33,734.5
2020-05-21,09:15:00,DRY,2.50,16.85,7.5,778.00,754.1
2020-05-21,09:20:00,DRY,1.50,16.60,7.3,778.00,773.3
2020-05-21,09:25:00,DRY,3.00,17.15,8.5,778.00,791.3
2020-05-21,09:30:00,DRY,2.37,17.23,8.3,778.00,808.8
2020-05-21,09:35:00,DRY,2.75,16.70,7.0,778.00,827.7
2020-05-21,09:40:00,DRY,2.80,17.07,9.0,778.00,844.7
2020-05-21,09:45:00,DRY,2.65,17.15,7.0,778.00,861.3
2020-05-21,09:50:00,DRY,2.20,16.63,8.3,778.00,880.4
2020-05-21,09:55:00,DRY,2.20,16.90,9.5,778.00,895.2
2020-05-21,10:00:00,DRY,2.60,16.87,10.3,778.00,909.9
2020-05-21,10:05:00,DRY,2.80,16.70,11.5,778.00,927.0
2020-05-21,10:10:00,DRY,2.50,16.33,11.7,778.00,941.1
2020-05-21,10:15:00,DRY,2.85,16.35,12.5,778.00,956.2
2020-05-21,10:20:00,DRY,2.17,15.97,11.7,778.00,967.9
2020-05-21,10:25:00,DRY,2.10,16.25,11.5,778.00,985.9
2020-05-21,10:30:00,DRY,1.93,16.20,11.7,778.00,999.1
2020-05-21,10:35:00,DRY,2.40,16.45,10.5,778.00,1011.5
2020-05-21,10:40:00,DRY,2.90,16.47,10.0,778.00,1025.1
2020-05-21,10:45:00,DRY,3.00,16.60,12.5,778.00,1035.8
2020-05-21,10:50:00,DRY,3.10,16.37,10.3,778.00,1049.6
2020-05-21,10:55:00,DRY,3.10,16.60,12.5,778.00,1060.9
2020-05-21,11:00:00,DRY,2.60,16.70,14.0,778.00,1071.8
2020-05-21,11:05:00,DRY,2.40,16.75,14.5,778.00,1084.6
2020-05-21,11:10:00,DRY,2.43,16.30,15.0,778.00,1092.6
2020-05-21,11:15:00,DRY,2.65,16.65,15.5,778.00,1104.3
2020-05-21,11:20:00,DRY,2.27,16.37,15.3,778.00,1114.1
2020-05-21,11:25:00,DRY,3.20,16.75,17.5,778.00,1122.1
2020-05-21,11:30:00,DRY,1.97,16.53,15.3,778.00,1132.2
2020-05-21,11:35:00,DRY,3.35,16.10,16.5,778.00,1138.6
2020-05-21,11:40:00,DRY,3.00,16.60,18.0,778.00,1144.6
2020-05-21,11:45:00,DRY,2.95,16.50,17.0,778.00,1156.2
2020-05-21,11:50:00,DRY,3.50,16.03,15.3,778.00,1161.2
2020-05-21,11:55:00,DRY,1.75,16.70,18.5,778.00,1163.3
2020-05-21,12:00:00,DRY,2.50,16.60,15.7,778.00,1172.0
2020-05-21,12:05:00,DRY,2.60,16.80,16.0,778.00,1176.8
2020-05-21,12:10:00,DRY,2.20,16.43,17.0,778.00,1182.7
2020-05-21,12:15:00,DRY,2.85,17.00,16.0,778.00,1186.5
2020-05-21,12:20:00,DRY,3.07,16.90,16.0,778.00,1189.2
2020-05-21,12:25:00,DRY,2.90,16.85,16.0,778.00,1193.0
2020-05-21,12:30:00,DRY,2.87,17.20,16.7,778.00,1196.0
2020-05-21,12:35:00,DRY,2.55,17.15,15.0,778.00,1198.7
2020-05-21,12:40:00,DRY,3.50,17.23,16.0,778.00,1200.9
2020-05-21,12:45:00,DRY,3.05,16.95,16.0,778.00,1204.0
2020-05-21,12:50:00,DRY,1.97,17.07,15.7,778.00,1204.4
2020-05-21,12:55:00,DRY,2.25,16.90,15.0,778.00,1205.6
2020-05-21,13:00:00,DRY,2.93,17.00,15.3,778.00,1206.5
2020-05-21,13:05:00,DRY,2.60,17.15,15.0,778.00,1207.4
2020-05-21,13:10:00,DRY,2.00,16.87,14.0,778.00,1207.7
2020-05-21,13:15:00,DRY,2.65,16.80,16.0,778.00,1207.6
2020-05-21,13:20:00,DRY,3.73,17.53,17.3,778.00,1206.6
2020-05-21,13:25:00,DRY,3.00,17.40,16.0,778.00,1206.8
2020-05-21,13:30:00,DRY,3.60,16.60,20.0,778.00,1205.6
2020-05-21,13:35:00,DRY,3.80,17.20,19.0,778.00,1205.7
2020-05-21,13:40:00,DRY,3.37,17.27,16.7,778.00,1201.2
2020-05-21,13:45:00,DRY,3.40,17.40,18.5,778.00,1197.2
2020-05-21,13:50:00,DRY,3.47,17.50,17.0,778.00,1194.6
2020-05-21,13:55:00,DRY,2.40,17.45,17.5,778.00,1195.1
2020-05-21,14:00:00,DRY,3.10,17.30,15.0,778.00,1188.2
2020-05-21,14:05:00,DRY,3.10,17.60,16.0,778.00,1184.3
2020-05-21,14:10:00,DRY,3.37,17.47,16.3,778.00,1181.3
2020-05-21,14:15:00,DRY,3.75,17.60,13.0,778.00,1175.2
2020-05-21,14:20:00,DRY,3.93,17.27,16.0,778.00,1168.7
2020-05-21,14:25:00,DRY,3.70,17.70,14.0,778.00,1161.0
2020-05-21,14:30:00,DRY,3.30,17.67,12.3,778.00,1152.8
2020-05-21,14:35:00,DRY,2.90,17.10,13.0,778.00,1146.1
2020-05-21,14:40:00,DRY,4.53,17.37,15.0,778.00,1138.0
2020-05-21,14:45:00,DRY,4.05,17.50,14.5,778.00,1129.8
2020-05-21,14:50:00,DRY,3.27,17.77,13.3,778.00,1119.7
2020-05-21,14:55:00,DRY,3.80,17.70,12.0,778.00,1113.1
2020-05-21,15:00:00,DRY,4.87,17.63,14.7,778.00,1099.3
2020-05-21,15:05:00,DRY,3.95,17.95,12.5,778.00,1090.1
2020-05-21,15:10:00,DRY,4.00,17.33,13.0,778.00,1080.1
2020-05-21,15:15:00,DRY,4.45,17.40,14.5,778.00,1068.8
2020-05-21,15:20:00,DRY,4.80,17.47,13.3,778.00,1056.5
2020-05-21,15:25:00,DRY,4.70,17.40,9.0,778.00,1043.2
2020-05-21,15:30:00,DRY,4.63,17.03,9.0,778.00,1029.8
2020-05-21,15:35:00,DRY,4.95,17.15,8.5,778.00,1017.4
2020-05-21,15:40:00,DRY,5.17,16.97,9.3,778.00,1002.7
2020-05-21,15:45:00,DRY,5.50,17.00,9.5,778.00,987.8
2020-05-21,15:50:00,DRY,5.03,16.80,10.0,778.00,974.4
2020-05-21,15:55:00,DRY,4.90,17.00,10.0,778.00,958.3
2020-05-21,16:00:00,DRY,4.80,16.90,9.7,778.00,943.4
2020-05-21,16:05:00,DRY,6.10,17.05,8.5,778.00,926.5
2020-05-21,16:10:00,DRY,5.57,16.90,9.3,778.00,911.7
2020-05-21,16:15:00,DRY,4.80,16.50,9.5,778.00,894.8
2020-05-21,16:20:00,DRY,5.60,16.93,6.7,778.00,878.0
2020-05-21,16:25:00,DRY,6.15,16.65,6.0,778.00,861.4
2020-05-21,16:30:00,DRY,5.93,16.57,5.3,778.00,843.5
2020-05-21,16:35:00,DRY,5.40,16.55,5.0,778.00,826.3
2020-05-21,16:40:00,DRY,4.97,16.67,6.0,778.00,807.8
2020-05-21,16:45:00,DRY,5.00,16.65,6.0,778.00,789.6
2020-05-21,16:50:00,DRY,4.90,16.73,6.7,778.00,771.6
2020-05-21,16:55:00,DRY,5.50,17.05,7.0,778.00,752.5
2020-05-21,17:00:00,DRY,5.67,16.47,6.3,778.00,733.1
2020-05-21,17:05:00,DRY,6.60,16.25,7.0,778.00,713.5
2020-05-21,17:10:00,DRY,5.07,16.10,8.0,778.00,693.2
2020-05-21,17:15:00,DRY,5.30,16.65,8.0,778.00,674.0
2020-05-21,17:20:00,DRY,5.03,16.50,7.7,778.00,652.7
2020-05-21,17:25:00,DRY,4.25,16.60,7.0,778.00,631.9
2020-05-21,17:30:00,DRY,4.90,16.57,7.7,778.00,610.6
2020-05-21,17:35:00,DRY,4.55,16.70,7.5,778.00,590.1
2020-05-21,17:40:00,DRY,4.83,16.40,6.3,778.00,568.9
2020-05-21,17:45:00,DRY,3.95,16.45,6.0,778.00,547.1
2020-05-21,17:50:00,DRY,4.97,16.47,6.0,778.00,527.0
2020-05-21,17:55:00,DRY,4.95,16.40,6.0,778.00,503.9
2020-05-21,18:00:00,DRY,5.13,16.30,6.0,778.00,481.7
2020-05-21,18:05:00,DRY,4.10,16.10,6.0,778.00,459.4
2020-05-21,18:10:00,DRY,4.10,16.13,5.7,778.00,437.1
2020-05-21,18:15:00,DRY,6.05,16.20,5.5,778.00,414.4
2020-05-21,18:20:00,DRY,4.67,15.97,5.7,778.00,391.9
2020-05-21,18:25:00,DRY,5.50,15.90,6.0,778.00,368.4
2020-05-21,18:30:00,DRY,3.87,15.83,5.7,778.00,346.2
2020-05-21,18:35:00,DRY,5.45,15.95,6.5,778.00,324.0
2020-05-21,18:40:00,DRY,4.20,15.77,7.0,778.00,300.3
2020-05-21,18:45:00,DRY,4.00,15.70,7.0,778.00,278.5
2020-05-21,18:50:00,DRY,3.87,15.57,6.7,778.00,256.6
2020-05-21,18:55:00,DRY,4.70,15.60,6.5,778.00,235.1
2020-05-21,19:00:00,DRY,4.57,15.53,5.3,778.00,213.6
2020-05-21,19:05:00,DRY,4.15,15.40,4.5,778.00,193.1
2020-05-21,19:10:00,DRY,4.37,15.27,4.7,778.00,173.4
2020-05-21,19:15:00,DRY,3.50,15.10,5.5,778.00,153.6
2020-05-21,19:20:00,DRY,4.97,14.97,5.3,778.00,133.2
2020-05-21,19:25:00,DRY,4.50,14.95,6.0,778.00,107.5
2020-05-21,19:30:00,DRY,6.07,14.87,5.0,778.00,82.8
2020-05-21,19:35:00,DRY,4.45,14.85,5.5,778.00,61.5
2020-05-21,19:40:00,DRY,5.27,14.83,5.7,778.00,43.9
2020-05-21,19:45:00,DRY,4.80,14.85,5.0,778.50,29.7
2020-05-21,19:50:00,DRY,4.70,14.73,6.0,778.67,18.8
2020-05-21,19:55:00,DRY,5.15,14.55,6.0,778.50,13.6
2020-05-21,20:00:00,DRY,4.63,14.50,6.0,778.67,9.9
2020-05-21,20:05:00,DRY,6.60,14.40,5.5,778.50,5.8
2020-05-21,20:10:00,DRY,5.40,14.37,6.0,779.00,3.3
2020-05-21,20:15:00,DRY,6.35,14.30,6.0,779.00,2.4
2020-05-21,20:20:00,DRY,5.33,14.37,6.7,779.00,1.8
2020-05-21,20:25:00,DRY,5.80,14.40,7.0,779.00,1.2
2020-05-21,20:30:00,DRY,6.03,14.33,7.0,779.00,1.3
2020-05-21,20:35:00,DRY,6.75,14.35,7.0,779.00,0.7
2020-05-21,20:40:00,DRY,5.50,14.40,7.0,779.00,1.4
2020-05-21,20:45:00,DRY,5.10,14.35,7.0,779.00,1.4
2020-05-21,20:50:00,DRY,5.00,14.37,7.0,779.00,1.4
2020-05-21,20:55:00,DRY,4.80,14.40,7.0,779.00,1.9
2020-05-21,21:00:00,DRY,4.33,14.30,7.7,779.00,2.1
2020-05-21,21:05:00,DRY,5.00,14.40,8.0,779.00,1.5
2020-05-21,21:10:00,DRY,4.93,14.37,8.0,779.00,1.4
2020-05-21,21:15:00,DRY,4.75,14.45,8.0,779.00,1.5
2020-05-21,21:20:00,DRY,5.10,14.47,8.0,779.00,1.5
2020-05-21,21:25:00,DRY,5.15,14.35,7.0,779.00,1.2
2020-05-21,21:30:00,DRY,4.40,14.33,7.7,779.00,1.1
2020-05-21,21:35:00,DRY,4.75,14.30,7.5,779.00,1.4
2020-05-21,21:40:00,DRY,4.97,14.03,7.0,779.00,1.3
2020-05-21,21:45:00,DRY,4.25,14.10,7.0,779.00,1.3
2020-05-21,21:50:00,DRY,4.63,14.40,8.0,779.00,1.4
2020-05-21,21:55:00,DRY,5.10,14.40,8.0,779.00,1.2
2020-05-21,22:00:00,DRY,4.90,14.30,7.3,779.00,1.4
2020-05-21,22:05:00,DRY,4.90,14.20,7.0,779.00,1.3
2020-05-21,22:10:00,DRY,5.57,14.40,7.3,779.00,1.5
2020-05-21,22:15:00,DRY,4.80,14.35,7.0,779.00,1.4
2020-05-21,22:20:00,DRY,4.83,14.50,7.0,779.00,1.2
2020-05-21,22:25:00,DRY,5.05,14.45,7.0,779.00,1.3
2020-05-21,22:30:00,DRY,3.63,14.47,7.0,779.00,0.9
2020-05-21,22:35:00,DRY,4.30,14.45,7.0,779.00,2.1
2020-05-21,22:40:00,DRY,5.67,14.40,7.0,779.00,1.3
2020-05-21,22:45:00,DRY,6.10,14.50,7.0,779.00,1.4
2020-05-21,22:50:00,DRY,4.83,14.47,6.7,779.00,1.2
2020-05-21,22:55:00,DRY,3.95,14.55,7.0,779.00,1.2
2020-05-21,23:00:00,DRY,4.73,14.33,6.0,779.00,1.2
2020-05-21,23:05:00,DRY,4.05,14.50,6.0,779.00,1.2
2020-05-21,23:10:00,DRY,4.33,14.47,6.3,779.00,1.2
2020-05-21,23:15:00,DRY,3.60,14.50,6.0,779.00,1.5
2020-05-21,23:20:00,DRY,4.37,14.43,6.0,779.00,1.1
2020-05-21,23:25:00,DRY,3.95,14.45,6.0,779.00,1.3
2020-05-21,23:30:00,DRY,3.97,14.43,6.0,779.00,0.7
2020-05-21,23:35:00,DRY,5.25,14.55,6.5,779.00,1.4
2020-05-21,23:40:00,DRY,4.40,14.57,6.7,779.00,1.4
2020-05-21,23:45:00,DRY,3.35,14.55,7.0,779.00,1.5
2020-05-21,23:50:00,DRY,4.57,14.63,6.0,779.00,1.5
2020-05-21,23:55:00,DRY,4.60,14.60,6.0,779.00,1.3
2020-05-22,00:00:00,DRY,4.83,14.70,6.0,779.00,1.4
2020-05-22,00:05:00,DRY,4.35,14.75,7.0,779.00,1.4
2020-05-22,00:10:00,DRY,3.90,14.67,6.3,779.00,1.2
2020-05-22,00:15:00,DRY,3.35,14.65,6.5,779.00,1.3
2020-05-22,00:20:00,DRY,4.10,14.63,6.3,779.00,1.6
2020-05-22,00:25:00,DRY,4.60,14.75,7.0,779.00,1.2
2020-05-22,00:30:00,DRY,4.37,14.77,7.0,779.00,1.2
2020-05-22,00:35:00,DRY,4.00,14.80,7.0,779.00,1.6
2020-05-22,00:40:00,DRY,4.13,14.83,6.0,779.00,1.4
2020-05-22,00:45:00,DRY,4.10,14.95,6.0,779.00,1.0
2020-05-22,00:50:00,DRY,2.83,14.90,6.0,779.00,1.1
2020-05-22,00:55:00,DRY,3.85,14.85,6.5,779.00,1.2
2020-05-22,01:00:00,DRY,3.23,15.13,7.0,779.00,1.4
2020-05-22,01:05:00,DRY,4.60,15.05,7.0,779.00,1.2
2020-05-22,01:10:00,DRY,2.87,15.00,6.7,778.00,1.4
2020-05-22,01:15:00,DRY,3.20,15.00,6.5,778.50,0.9
2020-05-22,01:20:00,DRY,3.87,15.13,6.3,778.00,1.5
2020-05-22,01:25:00,DRY,3.30,15.15,7.0,778.00,1.8
2020-05-22,01:30:00,DRY,2.67,15.03,7.0,778.00,1.7
2020-05-22,01:35:00,DRY,2.15,15.30,7.0,778.00,0.8
2020-05-22,01:40:00,DRY,3.00,15.27,7.0,778.00,1.5
2020-05-22,01:45:00,DRY,1.25,15.25,7.0,778.00,1.8
2020-05-22,01:50:00,DRY,1.27,15.17,7.0,778.00,1.6
2020-05-22,01:55:00,DRY,1.95,15.15,7.0,778.00,1.6
2020-05-22,02:00:00,DRY,2.00,15.20,7.0,778.00,0.5
2020-05-22,02:05:00,DRY,3.40,15.15,7.0,778.00,1.0
2020-05-22,02:10:00,DRY,2.23,15.37,7.0,778.00,1.2
2020-05-22,02:15:00,DRY,1.75,15.25,7.0,778.00,1.1
2020-05-22,02:20:00,DRY,1.23,15.20,7.0,778.00,1.5
2020-05-22,02:25:00,DRY,1.00,15.25,7.0,778.00,1.6
2020-05-22,02:30:00,DRY,2.30,15.23,6.7,778.00,1.5
2020-05-22,02:35:00,DRY,3.15,15.30,6.0,778.00,0.8
2020-05-22,02:40:00,DRY,1.40,15.43,6.0,778.00,1.0
2020-05-22,02:45:00,DRY,1.60,15.30,6.0,778.00,1.5
2020-05-22,02:50:00,DRY,1.97,15.23,6.0,778.00,1.0
2020-05-22,02:55:00,DRY,1.70,15.10,6.5,778.00,0.9
2020-05-22,03:00:00,DRY,1.70,15.20,6.0,778.00,1.4
2020-05-22,03:05:00,DRY,2.35,15.30,6.5,778.00,0.5
2020-05-22,03:10:00,DRY,2.80,15.45,6.0,778.00,1.5
2020-05-22,03:15:00,DRY,1.95,15.35,6.0,778.00,0.5
2020-05-22,03:20:00,DRY,1.90,15.27,6.3,778.00,1.2
2020-05-22,03:25:00,DRY,2.35,15.30,7.0,778.00,1.2
2020-05-22,03:30:00,DRY,2.67,15.30,7.0,778.00,1.2
2020-05-22,03:35:00,DRY,1.70,15.35,6.5,778.00,1.2
2020-05-22,03:40:00,DRY,1.50,15.23,6.7,778.00,1.2
2020-05-22,03:45:00,DRY,2.00,15.10,7.0,778.00,1.4
2020-05-22,03:50:00,DRY,1.27,15.10,6.3,778.00,1.1
2020-05-22,03:55:00,DRY,1.85,15.10,6.5,778.00,1.1
2020-05-22,04:00:00,DRY,2.00,14.87,6.7,778.00,1.0
2020-05-22,04:05:00,DRY,2.45,14.95,6.5,778.00,0.5
2020-05-22,04:10:00,DRY,1.97,14.97,6.3,778.00,0.9
2020-05-22,04:15:00,DRY,3.10,14.80,6.0,778.00,1.2
2020-05-22,04:20:00,DRY,2.03,14.87,6.3,778.00,1.3
2020-05-22,04:25:00,DRY,1.55,14.95,6.0,778.00,1.9
2020-05-22,04:30:00,DRY,2.17,14.50,6.7,778.00,1.6
2020-05-22,04:35:00,DRY,2.05,14.60,6.0,778.00,1.6
2020-05-22,04:40:00,DRY,2.30,14.87,6.3,778.00,1.3
2020-05-22,04:45:00,DRY,1.80,14.90,6.0,778.00,1.7
2020-05-22,04:50:00,DRY,1.93,15.07,6.0,778.00,0.6
2020-05-22,04:55:00,DRY,2.70,14.80,6.0,778.00,0.7
2020-05-22,05:00:00,DRY,3.03,14.90,6.0,778.00,1.9
2020-05-22,05:05:00,DRY,3.30,15.05,5.5,778.00,0.9
2020-05-22,05:10:00,DRY,3.37,14.83,6.0,778.00,1.3
2020-05-22,05:15:00,DRY,2.75,14.95,6.0,778.00,1.2
2020-05-22,05:20:00,DRY,2.67,14.60,6.0,778.00,0.8
2020-05-22,05:25:00,DRY,2.45,14.45,6.0,778.00,0.9
2020-05-22,05:30:00,DRY,3.40,14.47,6.0,778.00,1.1
2020-05-22,05:35:00,DRY,3.80,14.50,6.0,778.00,1.3
2020-05-22,05:40:00,DRY,3.80,14.63,6.0,778.00,1.2
2020-05-22,05:45:00,DRY,3.65,14.60,5.5,778.00,0.9
2020-05-22,05:50:00,DRY,3.77,14.57,6.0,778.00,1.2
2020-05-22,05:55:00,DRY,3.35,14.50,6.0,778.00,1.2
2020-05-22,06:00:00,DRY,1.97,14.27,6.0,778.00,1.9
2020-05-22,06:05:00,DRY,2.50,14.35,6.0,778.00,2.8
2020-05-22,06:10:00,DRY,2.13,14.23,6.0,778.00,4.2
2020-05-22,06:15:00,DRY,2.30,14.20,6.0,778.00,6.3
2020-05-22,06:20:00,DRY,3.57,14.50,5.3,778.00,12.5
2020-05-22,06:25:00,DRY,4.30,14.80,5.0,778.00,27.0
2020-05-22,06:30:00,DRY,2.47,14.77,4.7,778.00,44.4
2020-05-22,06:35:00,DRY,4.35,14.70,4.0,778.00,64.6
2020-05-22,06:40:00,DRY,4.37,15.10,4.0,778.00,88.1
2020-05-22,06:45:00,DRY,2.70,15.05,4.0,778.00,112.0
2020-05-22,06:50:00,DRY,4.67,15.13,5.0,778.00,131.9
2020-05-22,06:55:00,DRY,2.40,15.25,5.0,778.00,150.7
2020-05-22,07:00:00,DRY,4.17,15.20,5.0,778.00,171.6
2020-05-22,07:05:00,DRY,3.90,15.20,5.0,778.00,192.6
2020-05-22,07:10:00,DRY,5.13,15.30,5.0,778.00,214.3
2020-05-22,07:15:00,DRY,4.20,15.40,5.0,778.00,236.8
2020-05-22,07:20:00,DRY,3.20,15.27,5.3,778.00,259.4
2020-05-22,07:25:00,DRY,2.05,15.30,4.5,778.00,283.0
2020-05-22,07:30:00,DRY,2.47,15.63,5.0,778.00,305.8
2020-05-22,07:35:00,DRY,1.55,15.85,4.5,779.00,328.8
2020-05-22,07:40:00,DRY,2.60,16.07,4.7,778.33,352.2
2020-05-22,07:45:00,DRY,1.70,16.00,4.0,778.00,374.9
2020-05-22,07:50:00,DRY,1.97,15.93,4.7,778.67,396.5
2020-05-22,07:55:00,DRY,3.70,16.00,5.0,778.00,419.4
2020-05-22,08:00:00,DRY,3.97,16.27,4.7,778.00,442.4
2020-05-22,08:05:00,DRY,3.50,16.20,4.5,779.00,464.7
2020-05-22,08:10:00,DRY,2.77,16.20,5.0,779.00,486.3
2020-05-22,08:15:00,DRY,3.10,16.45,5.0,779.00,507.9
2020-05-22,08:20:00,DRY,3.50,16.33,5.7,779.00,530.1
2020-05-22,08:25:00,DRY,3.10,16.30,6.0,779.00,551.0
2020-05-22,08:30:00,DRY,1.47,16.37,6.0,779.00,574.5
2020-05-22,08:35:00,DRY,1.45,16.65,6.0,779.00,595.4
2020-05-22,08:40:00,DRY,1.70,16.63,6.3,779.00,616.8
2020-05-22,08:45:00,DRY,1.95,16.65,7.0,779.00,638.0
2020-05-22,08:50:00,DRY,2.77,16.53,6.7,779.00,659.3
2020-05-22,08:55:00,DRY,2.25,16.50,7.0,779.00,679.2
2020-05-22,09:00:00,DRY,3.00,16.43,7.3,779.00,699.4
2020-05-22,09:05:00,DRY,2.05,16.50,7.0,779.00,719.8
2020-05-22,09:10:00,DRY,1.60,17.00,7.7,779.00,738.1
2020-05-22,09:15:00,DRY,1.10,17.10,7.0,779.00,758.0
2020-05-22,09:20:00,DRY,2.10,17.27,7.7,779.00,778.8
2020-05-22,09:25:00,DRY,2.55,17.45,8.0,779.00,797.5
2020-05-22,09:30:00,DRY,2.17,17.00,7.3,779.00,813.5
2020-05-22,09:35:00,DRY,1.55,17.15,8.0,779.00,833.3
2020-05-22,09:40:00,DRY,2.37,17.43,9.0,779.00,849.8
2020-05-22,09:45:00,DRY,1.85,17.35,9.0,779.00,868.7
2020-05-22,09:50:00,DRY,0.83,17.30,8.0,779.00,886.5
2020-05-22,09:55:00,DRY,0.75,17.80,7.5,779.00,903.7
2020-05-22,10:00:00,DRY,1.47,17.77,8.0,779.00,916.8
2020-05-22,10:05:00,DRY,1.75,17.55,7.5,779.00,934.1
2020-05-22,10:10:00,DRY,2.53,18.30,8.3,779.00,949.2
2020-05-22,10:15:00,DRY,2.05,17.65,7.5,779.00,964.8
2020-05-22,10:20:00,DRY,1.70,17.97,7.7,779.00,979.0
2020-05-22,10:25:00,DRY,2.55,18.00,9.0,779.00,992.5
2020-05-22,10:30:00,DRY,2.07,18.00,8.3,779.00,1006.9
2020-05-22,10:35:00,DRY,2.10,18.00,10.0,779.00,1020.8
2020-05-22,10:40:00,DRY,1.67,18.80,9.7,779.00,1034.9
2020-05-22,10:45:00,DRY,3.00,18.75,8.0,779.00,1045.7
2020-05-22,10:50:00,DRY,1.93,19.47,10.0,779.00,1058.0
2020-05-22,10:55:00,DRY,1.75,19.30,9.0,779.00,1072.3
2020-05-22,11:00:00,DRY,1.87,19.67,8.0,779.00,1083.6
2020-05-22,11:05:00,DRY,1.75,18.90,7.5,779.00,1094.4
2020-05-22,11:10:00,DRY,1.80,18.50,8.3,779.00,1105.9
2020-05-22,11:15:00,DRY,1.70,18.45,9.0,779.00,1113.7
2020-05-22,11:20:00,DRY,1.10,19.10,7.7,779.33,1123.7
2020-05-22,11:25:00,DRY,2.10,19.15,8.0,779.00,1134.7
2020-05-22,11:30:00,DRY,1.80,18.67,7.7,779.00,1144.2
2020-05-22,11:35:00,DRY,1.20,18.25,8.0,779.00,1152.9
2020-05-22,11:40:00,DRY,1.07,18.87,8.0,779.00,1158.7
2020-05-22,11:45:00,DRY,2.50,19.10,7.5,779.00,1166.0
2020-05-22,11:50:00,DRY,1.73,18.87,9.0,779.00,1173.0
2020-05-22,11:55:00,DRY,1.80,19.40,8.5,779.00,1176.6
2020-05-22,12:00:00,DRY,1.80,19.13,9.3,779.33,1182.3
2020-05-22,12:05:00,DRY,1.10,18.70,10.5,779.00,1188.8
2020-05-22,12:10:00,DRY,1.17,18.20,10.7,779.33,1195.9
2020-05-22,12:15:00,DRY,2.05,18.45,10.5,779.00,1197.7
2020-05-22,12:20:00,DRY,1.73,19.47,10.7,779.00,1202.1
2020-05-22,12:25:00,DRY,0.90,19.15,10.0,779.00,1207.4
2020-05-22,12:30:00,DRY,1.57,18.70,10.3,779.00,1207.2
2020-05-22,12:35:00,DRY,1.45,19.85,10.5,779.50,1209.8
2020-05-22,12:40:00,DRY,3.50,20.37,9.3,779.00,1211.5